Temp
17 17 17 17 17 17 18 18 18 18 18 18 18 17 17 18 18 18 18 18 18 18 18 18 18 18 18 18 18 18 19 19 19 18 17 16 17 17 17 17 17 18 18 18 18 18 18 18 18 18 19 18 17 17 17 16 16 18 19 18 18 18 16 14 13 14 13 11 9 7 8 8 6 6 5 5 4 3 3 2 2 2 2 2 2 3 3 4
17 17 17 17 17 17 18 18 18 18 18 18 18 18 17 18 18 18 19 19 19 18 18 18 18 18 18 18 18 19 19 19 19 17 17 17 17 17 17 17 18 18 18 18 18 18 19 18 17 17 19 19 17 17 18 16 16 17 16 18 18 16 12 8 9 10 11 10 8 6 7 7 6 5 6 6 4 4 4 3 2 3 2 2 2 2 3 3
17 17 18 18 18 18 18 18 18 18 18 18 18 18 18 18 18 18 19 19 19 19 18 18 18 18 18 19 19 19 19 19 19 17 17 17 17 17 17 18 18 18 18 18 18 18 19 19 18 18 19 19 17 17 19 16 16 14 15 19 16 11 9 6 6 8 9 8 7 6 5 5 4 4 5 5 4 4 4 3 3 3 2 2 2 2 2 3
17 18 18 18 18 18 18 18 18 18 18 18 18 18 18 18 18 18 18 18 18 18 18 18 18 18 18 19 19 19 19 19 18 17 17 17 17 17 17 18 18 18 18 18 19 18 18 18 17 19 20 19 17 17 17 15 15 13 13 16 11 8 10 7 6 6 7 7 6 6 6 6 3 3 4 4 7 6 3 2 2 3 2 1 1 1 1 2
18 18 18 19 19 19 19 19 19 19 19 18 18 18 18 18 18 18 18 18 18 18 18 18 18 18 18 19 19 19 19 19 17 17 17 17 17 17 17 18 18 18 19 19 18 17 18 17 17 19 20 19 18 17 16 12 12 11 8 8 7 8 9 6 5 6 5 6 6 6 7 6 3 3 3 4 8 6 2 1 1 1 1 1 1 1 0 0
18 18 19 19 19 19 19 19 19 19 19 19 19 19 19 19 19 19 18 18 18 18 18 18 18 18 19 19 19 19 19 18 17 17 17 17 17 17 18 18 18 19 19 19 18 17 17 18 19 20 19 18 17 16 14 10 10 12 8 5 5 6 7 6 5 5 5 7 7 6 6 3 3 4 1 1 4 2 -0 -0 -1 -0 -0 0 0 0 0 -0
18 18 19 19 19 19 19 19 19 19 19 19 19 19 19 19 19 19 18 18 18 18 18 18 18 18 18 19 19 19 18 17 16 16 17 17 17 17 18 18 18 19 19 18 18 18 18 19 20 19 19 18 15 14 12 9 10 12 9 5 5 5 5 4 4 4 5 6 5 4 5 3 5 5 1 -0 -0 -1 -1 -1 -1 -0 -1 -0 -1 -1 -0 -1
19 19 19 19 19 19 19 19 19 19 19 19 19 19 19 19 19 19 19 19 18 18 18 18 19 19 19 19 19 18 16 16 16 16 17 17 17 18 18 18 18 18 18 18 17 18 18 19 19 17 18 17 14 13 11 12 11 9 7 5 4 4 3 3 3 3 3 4 3 4 5 3 3 4 2 -0 -0 -1 -1 -1 -1 -1 -1 -1 -1 -1 -1 -2
19 19 19 19 19 19 19 19 19 19 19 19 19 19 19 19 19 19 19 19 18 19 19 19 19 19 19 18 18 18 16 16 16 16 17 17 17 17 18 18 18 18 18 17 17 17 18 19 18 18 18 14 13 12 10 14 14 7 6 5 4 4 4 4 4 4 4 3 4 6 4 2 2 3 3 0 -0 -0 -1 -1 -1 -1 -1 -1 -2 -2 -2 -2
19 19 19 19 19 19 19 19 19 19 19 19 19 19 19 19 19 19 19 19 18 19 19 19 19 19 19 18 17 17 16 16 16 16 17 17 18 18 18 18 18 18 17 16 16 16 17 18 16 15 17 13 10 10 8 12 11 5 5 5 4 6 5 6 6 5 5 4 5 6 5 4 3 4 6 2 -1 -0 -1 -0 -1 -1 -0 -1 -1 -2 -2 -2
18 19 19 19 19 19 19 19 19 19 19 19 20 20 19 19 19 19 19 19 18 19 19 19 19 19 19 17 17 17 16 16 16 16 17 17 18 18 18 18 18 18 18 16 15 14 15 15 13 14 17 14 10 7 6 8 7 5 6 7 5 6 6 7 7 6 7 6 4 6 6 4 4 6 6 1 -0 0 -0 -0 -1 -1 -1 -1 -1 -2 -2 -2
19 19 19 19 19 19 19 19 19 19 19 19 20 20 19 19 19 19 19 19 19 19 19 19 19 19 19 16 16 16 16 16 16 16 17 17 18 17 17 17 18 18 18 16 14 14 15 15 15 15 15 13 10 9 7 6 7 7 8 9 7 8 8 7 7 7 7 7 5 6 8 8 7 6 3 -0 -0 -0 -0 -0 -1 -1 -1 -1 -1 -2 -2 -2
19 19 18 18 18 18 18 18 19 19 19 19 19 19 19 19 19 19 19 19 19 19 19 19 19 19 18 17 16 16 16 16 16 17 17 17 17 17 17 17 17 17 18 16 14 14 15 16 16 14 12 11 10 9 9 7 9 10 9 10 9 10 10 7 7 7 7 7 5 6 11 12 8 4 0 -1 -0 -0 0 0 -1 -1 -1 -1 -1 -2 -2 -2
18 18 18 18 18 18 18 18 19 19 19 19 19 19 19 19 19 19 19 19 19 19 18 18 19 19 18 17 17 17 16 16 17 17 17 17 17 17 17 17 17 17 17 16 14 15 15 16 15 11 10 10 9 9 9 9 10 10 10 10 10 11 11 7 6 8 8 7 5 7 12 13 9 3 0 -1 -0 0 1 0 -0 -1 -1 -1 -1 -1 -1 -2
18 18 18 18 18 18 18 18 19 19 19 19 19 19 19 19 19 19 19 19 19 19 19 19 19 19 17 16 17 17 16 17 16 16 16 16 17 17 17 17 17 17 17 16 15 15 15 16 14 11 10 10 10 11 11 11 10 10 12 11 9 11 11 8 6 6 8 7 5 8 11 11 9 4 1 -1 -1 0 1 1 -0 -1 -1 -1 -1 -1 -1 -2
18 18 18 18 18 18 18 18 19 19 18 18 19 19 19 19 19 19 19 19 19 19 19 19 18 19 18 17 17 17 16 16 15 15 15 16 16 17 17 17 17 17 17 16 16 15 15 15 12 9 11 11 11 12 12 12 12 10 12 12 10 10 10 9 7 4 6 7 6 8 10 11 9 4 1 -1 -0 -0 0 1 -0 -1 -1 -1 -1 -2 -2 -2
18 18 18 18 18 18 18 19 18 18 18 18 19 19 19 19 19 19 19 19 19 19 19 18 17 18 17 16 16 16 14 14 15 15 16 15 15 16 17 17 16 16 16 16 17 16 13 12 11 10 11 9 9 12 14 13 13 11 11 11 9 9 10 10 9 5 5 6 7 7 8 10 7 3 1 -1 -0 -0 0 1 -0 -1 -1 -1 -1 -2 -2 -2
18 18 18 18 18 18 19 19 18 19 19 19 19 19 19 19 19 19 19 19 19 19 19 18 17 18 17 15 15 14 14 15 15 14 15 16 15 16 16 15 13 15 17 16 15 14 12 11 11 13 12 10 9 12 15 14 13 13 12 12 10 9 9 10 9 7 5 7 7 7 7 9 7 3 1 -1 -1 0 0 0 0 -0 -1 -1 -1 -2 -2 -2
18 18 19 18 18 18 18 19 19 19 19 19 19 19 19 19 19 19 17 18 18 18 18 16 15 17 16 14 13 13 14 14 14 14 14 15 15 15 15 13 12 15 17 17 14 12 11 12 13 13 12 11 9 9 12 11 10 12 12 12 12 11 10 9 8 6 4 7 8 8 8 9 8 5 2 0 -1 -0 0 -0 -0 -0 -1 -1 -1 -2 -2 -2
18 19 19 19 19 18 18 19 19 18 19 19 19 19 20 19 19 17 15 15 14 13 15 14 14 15 15 14 13 14 15 15 14 13 13 14 14 15 14 12 14 14 13 14 13 10 9 12 11 10 9 8 7 6 7 7 6 9 11 11 11 11 10 8 7 5 3 7 9 7 7 7 8 5 2 1 -0 -1 -0 -0 -0 -0 -1 -1 -1 -1 -2 -2
19 19 19 19 19 19 18 19 19 19 19 19 19 19 19 18 18 16 14 13 11 10 13 13 12 13 14 13 12 13 14 15 15 12 13 13 13 16 14 12 17 16 9 8 10 10 11 12 9 7 7 6 6 4 5 6 6 8 10 11 10 9 10 7 6 5 3 7 8 5 5 8 8 6 2 1 0 0 0 0 0 0 -0 -1 -1 -1 -1 -1
19 19 19 19 19 19 19 19 19 19 18 19 19 18 16 16 18 17 15 15 13 12 13 12 12 13 13 13 12 11 13 15 15 13 13 13 13 15 13 11 14 13 8 8 11 12 12 11 8 6 5 4 5 4 5 8 8 9 10 11 11 9 9 8 6 5 4 7 9 5 6 9 9 6 3 1 1 1 1 1 1 1 0 -0 -1 -1 -1 -1
19 19 19 20 19 19 19 19 19 19 19 19 19 17 15 16 17 17 16 16 15 13 13 13 13 13 13 13 13 12 13 13 13 12 11 13 13 13 12 11 11 10 9 11 14 14 12 10 7 5 5 6 7 6 7 10 10 10 10 11 12 8 9 11 8 5 4 5 6 5 6 8 8 6 4 2 2 2 1 1 1 1 1 1 0 -0 -0 -1
19 19 19 19 19 19 19 19 19 19 19 19 19 17 17 17 17 16 15 15 15 14 13 12 12 13 13 13 12 13 13 11 11 12 11 11 11 11 11 11 10 10 8 8 11 12 11 8 5 5 5 7 10 9 9 12 11 9 9 11 11 9 9 10 7 5 5 5 4 6 8 10 9 8 7 4 2 1 2 1 1 1 1 1 1 0 0 0
19 19 19 19 19 19 19 19 19 19 19 18 18 17 17 17 17 17 17 15 16 15 13 12 12 13 13 13 13 11 12 11 10 11 10 10 10 11 10 8 10 11 8 8 10 10 9 6 4 6 7 8 11 11 8 10 11 10 9 9 9 10 9 7 6 7 9 8 6 6 10 12 10 8 8 6 3 3 2 1 2 1 1 0 0 0 0 0
19 19 19 19 19 18 19 19 18 18 18 17 17 17 17 17 17 17 18 17 17 15 14 15 14 14 13 12 10 9 12 13 11 10 10 10 9 11 11 9 9 10 8 8 9 9 8 6 5 7 9 9 10 10 7 7 11 12 8 7 7 8 8 7 8 8 10 10 6 5 9 11 10 11 11 6 4 4 3 2 3 2 2 1 1 1 1 1
19 19 19 19 18 18 19 19 18 18 18 17 16 17 17 17 17 17 17 18 17 14 14 16 15 14 14 11 8 11 14 13 11 10 10 10 9 10 12 11 10 9 7 8 10 10 8 8 7 8 9 11 11 10 7 6 10 11 7 5 7 7 8 7 8 9 8 8 6 5 7 9 9 11 8 3 5 6 4 4 3 3 3 2 2 2 1 1
19 18 18 18 18 18 19 19 18 17 17 17 16 17 18 17 17 17 18 18 16 13 13 14 15 14 13 10 9 12 13 10 12 13 9 10 10 10 12 10 9 9 6 9 13 10 7 9 9 9 10 11 10 8 6 6 9 9 4 4 5 6 7 7 7 8 6 7 9 7 6 8 10 10 5 2 6 9 8 7 6 5 4 3 3 2 2 2
18 18 18 18 18 18 18 18 18 16 16 16 17 17 17 17 17 17 18 17 15 13 13 13 15 14 11 11 11 11 10 10 11 11 8 10 10 10 11 8 8 9 6 8 12 9 7 7 6 8 10 9 8 6 5 7 8 6 3 4 5 5 6 6 7 8 7 8 10 7 6 8 10 11 8 6 8 10 10 9 7 6 6 4 4 3 3 2
17 17 17 17 17 17 18 17 16 16 16 16 17 17 17 17 17 17 17 16 15 13 12 13 13 11 10 13 13 10 10 10 8 8 9 10 10 9 8 7 8 10 9 8 9 8 6 4 4 7 8 7 7 4 3 5 5 4 5 7 7 7 7 7 7 7 8 10 9 5 4 7 9 11 10 9 10 11 11 11 9 8 7 5 4 3 3 3
17 16 16 17 17 17 17 16 15 16 16 16 17 16 18 18 16 17 17 14 14 13 12 12 11 9 9 12 12 10 10 10 7 9 11 9 9 9 8 9 10 11 12 11 10 8 7 6 6 6 6 5 6 5 3 3 4 5 7 9 9 9 8 8 8 8 9 11 8 4 3 6 9 11 11 10 10 9 10 12 13 12 10 8 5 3 3 3
16 16 16 16 16 17 17 15 15 15 16 17 16 16 18 18 16 17 15 13 14 13 12 11 10 9 9 10 10 9 9 10 8 8 8 7 8 7 7 8 9 11 13 11 10 10 9 9 8 6 5 5 7 9 6 5 5 6 8 9 10 10 10 10 10 9 9 10 6 4 5 6 8 10 10 10 10 9 8 9 12 13 13 12 8 3 1 1
15 15 16 16 16 16 16 15 15 16 16 17 17 17 18 18 17 14 12 14 14 11 9 10 9 8 9 11 10 8 8 9 8 7 6 7 8 6 5 4 5 9 12 9 10 12 11 10 8 8 7 5 7 10 10 9 7 7 9 10 11 10 10 10 9 7 8 9 5 3 5 7 8 10 11 10 11 11 8 7 8 8 10 11 7 2 1 1
14 15 16 15 15 15 14 15 15 16 16 17 18 18 17 18 16 11 12 13 11 9 8 8 9 9 10 11 9 8 9 9 7 8 8 8 10 9 7 6 4 7 9 9 9 10 12 12 10 9 8 7 7 8 9 9 8 7 6 8 10 10 10 10 10 9 9 9 6 4 6 9 11 11 10 10 10 8 7 6 4 4 4 4 3 1 1 1
15 15 15 14 14 14 14 15 15 16 17 18 18 18 18 17 14 12 13 12 9 10 9 7 9 12 11 10 8 7 9 10 8 8 9 9 10 9 8 7 6 6 9 10 9 7 10 12 9 7 6 6 8 6 5 8 9 5 4 7 10 10 10 8 6 6 6 5 6 6 7 8 10 10 9 9 8 7 6 5 4 5 3 1 2 2 2 1
16 15 15 14 14 14 14 15 16 16 17 18 18 18 16 14 12 12 11 9 9 10 10 10 11 13 13 11 10 8 8 9 9 9 9 8 7 7 7 6 5 5 7 10 9 8 10 11 8 6 6 5 6 5 5 7 10 7 6 9 8 5 8 8 4 1 2 5 7 7 8 8 9 11 9 8 10 9 9 8 7 7 5 2 3 3 2 2
16 15 15 14 14 15 15 16 17 17 18 18 19 16 12 10 10 9 8 7 8 8 11 14 12 11 13 12 11 10 9 8 9 10 10 9 8 8 7 6 5 4 5 6 8 8 9 11 8 6 8 6 3 4 5 5 7 8 8 8 5 4 6 7 7 5 4 6 7 6 8 9 9 11 10 10 12 12 12 11 8 7 6 4 5 4 3 2
16 15 15 14 14 15 15 16 17 16 17 18 16 12 9 9 8 7 6 6 7 8 11 14 11 10 11 12 12 9 9 11 10 10 10 10 9 8 7 7 5 3 2 3 7 7 6 11 9 4 7 6 3 5 7 5 4 6 7 6 6 8 8 7 7 8 7 6 6 6 6 6 7 10 11 11 12 13 13 12 11 10 10 7 5 4 3 2
16 16 16 14 14 15 16 17 16 16 18 18 14 11 9 9 7 5 5 6 8 9 12 12 10 9 9 10 11 9 8 11 10 9 10 10 10 8 7 7 6 4 2 3 7 6 5 10 11 5 5 6 6 7 9 8 5 4 5 5 5 6 7 7 6 6 7 7 6 6 7 7 8 8 10 12 12 13 13 12 12 13 12 8 5 4 3 2
15 17 16 14 15 15 16 17 16 17 18 14 11 10 9 8 7 5 4 5 8 9 11 11 9 10 10 8 9 9 7 8 8 9 10 9 9 9 6 6 7 4 2 3 5 5 5 8 10 8 6 6 9 8 9 10 8 6 7 6 5 5 4 5 4 4 6 7 6 5 7 9 10 9 11 12 12 12 13 12 12 12 10 7 5 3 2 1
14 17 17 14 15 15 16 17 13 11 12 10 8 9 8 8 8 5 2 3 6 7 8 9 9 10 11 9 9 8 7 8 8 8 9 8 9 10 7 6 7 5 4 5 6 6 7 7 8 9 8 9 10 6 4 6 6 7 8 7 7 6 5 7 6 3 3 5 5 5 6 9 10 9 10 11 12 13 12 10 10 10 9 7 4 2 1 1
16 18 16 14 15 16 16 15 7 5 9 10 8 8 7 8 8 6 4 3 5 7 6 7 8 8 9 10 9 8 8 9 8 8 9 9 9 10 7 5 5 5 6 7 5 4 5 6 7 8 8 9 8 3 0 2 3 4 6 5 5 6 7 9 8 5 3 3 2 1 3 8 11 11 11 11 11 10 8 6 7 7 6 5 4 3 1 1
16 17 14 14 15 15 16 14 8 6 9 8 6 6 7 8 8 7 6 6 7 7 8 8 8 8 9 8 8 7 8 9 9 9 9 8 8 7 5 4 4 5 6 7 5 4 4 6 7 8 8 7 4 1 0 1 2 4 5 3 4 5 6 6 6 4 5 5 3 2 3 8 11 10 9 8 6 6 5 4 5 6 5 4 4 5 4 3
14 14 13 14 15 15 17 17 13 9 8 7 8 7 7 7 7 8 8 8 8 8 9 9 8 8 8 7 7 8 8 10 10 9 7 8 7 4 2 3 4 5 6 6 6 6 7 8 8 9 10 9 8 7 5 4 4 5 5 3 3 4 3 2 2 2 4 6 6 5 5 8 10 9 7 6 5 7 8 6 5 5 5 5 5 5 4 4
14 14 13 13 12 13 14 13 12 11 8 9 10 8 8 8 7 7 8 8 7 7 9 9 7 7 6 5 7 7 6 9 10 8 6 7 6 3 1 2 3 4 5 4 4 6 7 7 8 9 10 10 11 11 10 8 6 5 4 3 3 3 3 4 4 3 4 5 4 6 7 9 10 10 9 8 7 8 8 7 6 5 4 4 4 4 4 3
16 17 16 15 11 10 9 6 9 11 9 10 11 9 9 10 7 5 7 8 6 6 7 7 6 7 7 6 8 8 7 7 7 7 7 7 7 4 1 2 2 3 4 3 3 5 5 5 6 9 9 9 11 11 8 7 7 6 6 4 3 2 2 4 4 4 4 4 3 6 7 8 9 9 9 9 8 8 8 8 7 6 5 5 4 3 3 3
17 17 15 15 14 12 11 8 9 11 10 11 13 10 9 11 9 7 7 7 6 5 7 7 6 8 9 8 9 10 7 6 6 6 7 7 7 4 1 1 2 2 3 2 2 4 5 5 5 6 7 8 9 8 6 4 6 7 6 5 5 3 1 2 4 5 6 5 5 7 7 6 7 8 8 8 8 8 8 7 7 7 6 5 5 4 3 3
14 14 9 10 14 15 13 12 10 10 9 10 10 10 10 10 10 10 9 6 5 6 8 8 7 9 10 9 11 11 8 7 8 7 7 6 5 5 3 2 1 2 3 2 2 3 6 6 4 4 5 6 5 5 5 4 4 4 4 4 4 2 2 3 4 5 5 5 7 8 8 7 7 8 8 8 8 8 7 7 6 6 5 5 5 4 4 3
10 12 7 6 11 11 9 8 9 10 11 10 9 10 11 11 12 11 8 7 7 7 7 11 11 9 8 8 10 11 10 11 11 9 8 7 6 6 7 5 2 1 2 3 2 2 5 6 3 1 3 5 4 3 3 3 3 3 3 3 3 2 2 2 3 4 4 5 6 6 6 6 7 7 7 7 7 6 6 6 5 5 5 5 4 4 4 3
13 14 11 9 10 8 6 7 9 12 11 9 11 11 9 11 13 10 8 9 12 9 6 10 12 9 7 7 9 11 11 12 13 11 8 8 7 6 8 8 5 1 2 4 2 1 4 5 2 1 4 5 4 3 2 2 2 2 3 3 3 2 2 1 2 2 3 3 3 4 4 3 5 6 6 6 6 5 5 5 5 5 5 4 4 4 4 3
12 11 11 14 13 8 8 8 8 12 13 11 13 12 10 12 12 10 10 10 11 11 8 10 11 8 5 6 7 10 10 9 11 10 8 9 9 7 8 8 5 4 3 2 2 2 3 4 2 2 6 6 4 3 3 3 3 3 5 6 5 3 2 2 2 2 2 3 3 2 2 3 5 6 6 6 5 5 5 5 5 5 5 5 5 4 4 4
10 10 10 15 15 8 8 10 9 12 15 13 12 11 10 12 9 10 13 10 7 8 8 8 10 8 7 7 8 9 8 7 8 7 5 6 6 5 6 6 5 6 4 2 2 1 1 4 4 3 6 7 3 2 4 4 6 8 9 9 9 7 4 3 3 3 2 3 4 4 5 6 7 7 6 6 6 6 6 6 6 6 5 5 5 4 4 4
Height
817 816 816 816 815 815 814 814 813 814 814 815 815 814 814 815 815 815 815 815 815 816 816 816 815 815 815 815 816 816 815 815 816 815 816 819 819 819 818 817 816 815 815 814 813 813 814 814 815 816 817 819 821 822 822 824 826 825 831 838 840 840 845 851 853 853 854 861 871 876 875 876 883 886 885 886 889 892 892 894 895 894 894 893 895 896 897 898
817 816 816 815 815 815 814 814 813 813 813 813 814 814 814 814 814 815 814 815 814 815 815 815 815 815 815 815 815 815 815 815 815 816 818 820 818 818 817 816 815 815 815 814 813 813 813 814 814 815 817 819 823 823 823 826 827 831 839 838 839 844 856 869 865 861 859 861 872 877 878 878 881 885 884 886 892 893 890 896 897 895 896 896 896 897 897 898
817 816 815 815 815 814 814 814 813 813 812 812 812 812 813 813 814 814 814 814 814 815 815 815 815 815 815 815 815 815 815 815 816 818 819 819 818 817 816 815 815 814 814 813 813 813 813 813 813 815 817 819 824 823 823 828 830 838 840 833 845 858 865 873 871 866 863 864 873 878 881 882 885 888 884 887 893 894 892 896 897 896 898 898 898 898 897 897
816 815 815 814 814 814 813 813 813 812 811 811 811 811 811 812 812 813 814 814 814 814 814 814 814 814 815 815 815 815 814 816 819 820 819 818 817 816 814 814 814 813 813 813 812 812 813 813 813 815 817 820 826 826 828 833 833 842 845 843 859 866 863 871 873 871 869 870 873 878 880 882 888 887 887 888 884 889 897 897 897 896 897 899 898 898 898 897
816 815 814 813 813 813 812 812 812 812 811 810 810 809 810 810 811 812 813 813 814 814 814 814 814 814 815 815 816 815 816 821 823 820 819 817 816 815 814 813 813 812 812 811 812 812 813 813 814 816 818 821 825 826 833 841 839 849 864 867 871 868 864 874 876 873 874 874 875 878 877 881 889 888 892 889 877 885 897 898 899 898 898 899 898 898 898 897
815 815 814 813 812 812 811 811 811 811 810 810 809 809 809 809 810 811 812 812 813 813 813 814 814 814 814 815 816 815 818 824 823 819 818 816 815 814 812 812 812 811 811 811 812 812 813 814 814 816 819 824 829 830 837 846 841 845 867 877 874 871 869 875 877 876 877 874 875 878 880 886 888 889 896 896 889 894 899 898 899 899 899 898 898 899 898 898
815 815 814 813 812 812 811 810 810 809 809 809 808 809 808 809 809 810 812 812 812 812 813 814 814 814 815 815 816 816 819 823 822 819 818 815 814 813 812 812 811 810 810 810 811 812 814 813 814 818 820 825 833 837 841 847 844 844 865 878 877 876 876 879 879 879 879 876 880 882 883 888 885 885 895 899 899 901 899 899 899 898 900 899 899 899 898 898
816 815 814 813 812 812 811 810 809 808 808 807 807 808 808 808 809 810 811 811 812 813 813 814 814 814 815 815 815 818 822 823 821 819 817 815 814 813 812 811 810 811 810 810 811 811 813 813 815 819 821 828 833 839 844 843 845 855 869 877 879 881 882 883 882 882 882 882 885 883 884 891 889 887 895 900 900 900 900 899 900 899 900 900 899 899 898 899
816 815 814 813 812 812 811 810 809 808 807 807 806 806 807 807 808 809 810 811 812 813 813 814 814 815 815 815 815 820 825 825 822 819 817 816 815 814 812 812 811 810 810 811 811 810 812 813 815 816 820 833 836 841 847 838 842 862 873 877 880 882 883 882 882 883 883 885 884 882 888 893 892 890 893 900 900 899 901 899 900 900 900 900 900 899 899 899
816 815 814 813 813 812 811 810 808 808 807 806 806 806 806 807 808 809 810 811 812 813 814 814 815 815 815 814 817 824 827 824 822 820 818 816 815 814 812 812 811 811 811 811 812 812 812 812 815 815 818 833 843 848 852 844 850 868 874 877 880 879 881 880 881 883 881 885 883 880 887 890 892 888 885 896 901 899 900 900 901 901 900 901 900 900 900 899
816 815 814 814 813 812 810 810 808 807 807 806 806 805 805 807 808 809 810 811 812 813 813 814 815 815 815 815 821 828 827 824 822 819 818 817 815 814 813 813 812 811 811 812 813 813 812 813 814 815 817 829 845 855 860 858 862 870 869 872 880 879 879 880 879 881 879 882 884 882 885 889 889 883 883 895 899 898 900 900 901 900 900 901 900 900 900 899
816 815 814 814 813 812 811 810 809 808 807 807 806 806 807 808 809 810 811 811 812 812 814 815 815 815 815 817 825 828 826 824 823 820 819 817 816 815 814 814 813 812 812 812 814 813 813 815 813 816 824 832 846 856 862 867 865 866 864 865 876 876 874 879 879 880 878 879 885 883 878 878 880 881 889 897 897 899 900 899 901 900 900 900 900 900 899 899
816 815 815 814 813 812 811 810 810 809 808 808 807 808 808 809 810 811 811 812 813 814 815 815 815 815 815 822 828 827 826 825 823 821 819 818 817 817 816 815 814 813 812 812 814 815 813 815 814 821 831 837 850 854 858 867 862 862 865 864 871 869 870 880 880 879 879 880 885 882 866 860 873 886 894 897 897 898 898 899 900 899 900 900 899 899 899 898
816 815 815 814 813 812 812 811 810 810 810 809 809 809 810 810 811 812 813 814 814 815 815 815 816 815 817 825 828 826 826 825 822 820 820 819 819 818 818 817 816 815 815 814 816 816 816 816 815 825 836 840 850 854 857 865 861 863 864 865 871 864 867 881 882 879 878 881 886 881 864 856 871 888 894 896 897 897 896 897 898 898 899 898 899 898 897 897
816 816 815 814 814 813 813 812 812 812 811 811 811 811 812 812 813 814 815 815 816 816 816 816 816 816 820 826 827 826 826 823 822 822 821 821 820 819 819 818 817 817 817 817 817 819 819 818 819 833 844 844 847 850 854 858 862 867 860 863 874 866 868 880 883 884 879 881 886 878 865 860 870 884 892 895 896 896 895 895 897 897 897 897 897 897 895 895
816 816 815 815 814 814 814 813 813 813 812 813 812 813 814 814 815 815 816 816 816 816 816 817 817 816 822 827 827 826 826 825 824 824 823 822 820 820 819 818 819 818 819 820 820 821 819 821 832 844 847 848 850 848 851 856 860 867 860 861 872 869 870 876 880 888 885 882 883 878 869 862 869 884 892 895 895 896 895 894 896 895 895 896 894 895 894 893
816 816 815 815 815 815 814 814 814 814 814 814 814 814 815 815 816 816 817 817 817 818 817 818 818 818 824 828 828 828 829 829 827 826 824 823 822 821 819 819 819 818 820 820 819 822 823 830 841 846 850 856 860 849 845 854 855 862 866 866 875 875 871 870 873 885 887 882 880 882 878 865 872 887 891 894 894 894 894 891 893 893 893 893 892 892 891 891
816 816 815 815 815 815 815 815 815 815 815 815 815 816 816 817 817 817 818 817 817 817 817 820 819 822 830 832 832 833 832 830 829 826 824 823 822 821 820 820 820 819 820 821 824 828 830 838 844 843 849 856 861 853 842 850 853 853 859 860 868 877 873 869 871 881 885 881 878 881 878 867 873 886 889 893 894 892 891 890 890 890 890 890 890 890 888 888
816 816 815 815 816 816 816 816 816 816 816 816 816 817 817 817 817 818 819 818 821 824 827 830 828 831 837 836 836 835 832 831 830 827 825 824 823 822 822 822 822 822 823 824 830 838 838 841 844 845 853 858 867 868 856 859 861 855 856 855 857 863 869 874 876 884 889 880 875 875 872 866 869 879 885 889 892 890 888 889 888 887 887 887 887 886 885 885
816 815 815 815 815 816 816 816 816 816 817 817 817 817 818 819 821 826 827 826 832 836 837 838 837 837 839 838 836 832 831 831 830 829 826 824 823 823 824 825 825 827 834 837 838 846 848 849 858 863 867 870 874 879 876 876 877 869 862 859 863 863 863 875 881 886 892 877 869 877 877 871 867 872 882 886 890 891 887 886 884 883 884 883 883 883 881 879
815 815 815 815 815 816 816 816 817 817 817 818 817 817 819 820 823 830 834 836 840 840 838 839 839 838 838 838 837 834 833 831 829 829 827 827 825 823 828 830 825 830 848 855 849 849 847 851 869 875 875 879 878 883 882 878 877 871 862 859 867 869 865 877 883 884 892 878 870 885 883 866 861 868 878 884 886 883 879 880 878 878 880 879 879 878 877 876
814 814 814 814 814 815 816 816 817 817 818 818 817 817 819 819 820 823 827 836 841 840 839 840 839 839 839 839 837 836 835 833 831 831 829 828 825 825 834 837 834 841 854 855 847 847 850 857 872 877 880 882 880 883 879 872 870 866 865 861 860 870 871 876 884 887 891 878 869 883 878 858 856 866 874 879 877 873 873 874 873 874 876 875 875 874 874 874
813 813 813 813 814 814 815 816 816 817 818 818 818 818 818 819 821 821 822 831 840 841 841 840 840 841 839 838 839 837 837 841 841 838 835 831 832 835 839 842 846 851 856 850 840 842 849 861 875 880 881 876 873 880 874 863 865 866 865 858 857 874 872 861 874 887 889 885 879 882 877 861 855 860 866 870 871 869 870 872 872 873 871 869 869 870 871 871
812 812 811 812 812 813 815 815 816 818 817 818 818 818 820 820 821 822 824 834 839 840 841 841 841 841 841 841 841 839 840 846 848 843 840 837 839 842 843 848 850 854 863 861 851 849 855 869 880 881 879 873 864 868 867 854 859 870 867 858 859 871 871 866 878 886 885 887 888 880 864 849 848 853 854 860 870 870 868 870 869 868 867 865 867 866 866 865
811 811 810 811 812 812 814 814 816 817 817 819 819 819 821 820 822 821 825 835 839 840 841 840 841 842 843 842 841 842 843 846 848 846 844 843 843 843 848 854 851 853 866 866 858 857 865 876 881 875 873 872 861 862 871 865 857 865 870 870 868 867 870 878 883 880 871 870 882 881 854 834 840 848 846 853 865 863 863 867 862 861 863 864 864 861 860 860
810 810 811 810 811 812 813 814 816 816 817 819 819 821 821 821 823 821 825 836 841 844 843 839 842 842 842 843 843 844 843 844 848 848 845 844 845 843 846 854 855 856 864 866 862 863 870 878 879 873 868 866 863 864 878 878 860 857 871 879 878 873 874 878 878 873 864 862 881 888 864 844 838 830 834 852 860 857 860 862 856 855 857 857 857 854 854 855
810 810 810 810 812 812 812 814 814 816 817 818 819 821 821 822 823 820 828 840 844 848 847 841 843 843 843 846 846 842 842 846 847 847 847 845 845 844 843 851 856 858 868 866 858 863 870 871 873 872 865 861 862 865 878 882 863 858 878 885 879 878 876 878 877 872 873 873 880 887 876 866 849 829 842 862 856 851 854 852 850 849 849 848 848 847 847 847
810 810 809 810 812 812 812 813 813 816 816 817 819 820 821 822 822 822 832 845 849 851 850 846 844 844 846 848 847 846 849 852 847 845 849 846 845 845 844 855 859 860 872 862 849 865 874 868 869 869 864 863 866 872 880 881 869 870 889 890 884 883 879 882 879 874 885 879 865 876 881 870 848 831 853 867 848 838 837 834 835 836 838 840 840 840 840 840
810 809 810 811 811 812 813 812 813 815 815 817 819 820 822 821 820 827 839 849 852 852 853 849 843 847 851 849 850 854 854 855 853 850 850 848 847 847 850 862 864 861 870 863 854 868 875 874 877 872 866 868 873 882 884 878 874 880 891 888 886 889 884 885 879 872 884 873 855 873 883 870 843 820 837 854 839 827 822 822 826 826 828 831 832 833 832 834
810 810 810 810 811 812 813 813 815 815 816 818 819 821 822 821 826 838 846 850 852 854 855 851 850 857 857 849 850 858 857 858 862 857 852 853 851 853 859 864 863 860 863 865 864 871 877 881 883 876 873 875 878 887 890 884 882 884 886 879 877 882 880 883 884 879 875 860 861 887 893 878 851 821 823 831 823 818 813 812 817 818 822 825 825 827 825 828
811 811 811 811 812 813 813 814 815 816 817 818 820 821 821 827 838 844 850 854 855 855 855 856 861 865 863 857 856 862 861 861 866 860 855 859 858 858 861 859 859 857 856 861 865 870 875 874 877 878 878 880 878 882 889 889 888 884 878 871 867 869 874 874 876 878 866 849 867 897 898 886 858 823 818 822 819 823 818 808 804 804 810 815 819 821 821 822
812 811 812 812 813 813 813 815 816 817 818 819 821 821 824 836 843 846 854 856 853 857 860 862 866 868 869 867 866 869 867 863 869 870 868 871 871 872 873 869 868 857 851 861 863 862 867 868 873 878 879 881 874 870 878 884 885 881 873 868 863 863 867 862 861 873 867 856 877 897 888 879 858 824 818 821 815 817 820 814 806 802 801 803 812 818 819 821
813 813 812 812 813 814 814 816 817 818 818 820 821 823 831 838 843 857 864 855 854 865 869 869 870 872 870 863 865 874 872 868 871 874 878 877 874 880 885 887 886 866 858 870 866 855 857 864 872 873 872 880 874 862 862 869 876 876 870 864 859 865 869 862 867 882 872 859 881 902 889 868 846 822 814 812 806 807 815 817 813 810 808 806 813 820 820 820
815 814 813 814 815 815 816 817 818 819 820 821 822 828 836 839 850 868 866 858 866 872 873 874 871 869 868 864 871 876 869 869 876 874 874 872 867 870 877 883 888 879 870 874 874 866 856 853 862 867 868 874 874 868 865 867 873 879 882 875 863 864 865 859 863 864 859 863 880 892 878 848 822 810 809 808 808 813 815 817 819 818 818 817 818 819 817 817
817 816 816 816 817 817 819 819 819 820 819 821 827 833 837 842 856 864 858 862 872 869 872 879 870 861 864 869 877 881 871 867 875 875 870 870 868 870 875 877 884 884 872 864 875 883 868 855 865 874 875 875 871 875 879 871 869 884 892 877 864 863 862 873 889 888 886 889 883 872 858 839 819 808 811 813 810 813 814 816 819 814 815 820 817 814 813 812
819 818 817 818 819 820 820 820 821 821 821 824 829 835 843 851 858 860 861 868 870 867 867 869 865 858 857 865 871 878 877 872 873 871 869 875 878 878 881 882 885 887 876 867 874 879 865 856 870 878 876 879 876 876 882 870 862 878 882 866 872 882 871 875 900 920 920 895 873 865 847 831 822 806 806 812 803 803 806 807 810 807 810 817 812 807 808 807
819 819 820 821 821 821 821 822 822 821 822 825 830 842 858 865 865 867 873 873 872 873 863 856 863 863 858 861 864 868 873 873 873 868 865 873 875 876 881 883 886 888 885 881 876 877 871 857 868 880 871 876 886 881 881 881 873 871 869 867 880 888 881 878 881 894 903 884 868 867 843 826 826 807 798 804 796 792 794 796 803 805 806 810 805 802 804 804
820 820 821 822 822 822 822 822 822 822 823 830 842 857 867 868 870 875 878 876 874 872 862 854 864 872 867 862 861 871 873 864 866 868 866 868 868 872 878 877 883 890 893 888 875 882 885 858 861 885 876 874 888 879 870 880 883 875 871 878 880 869 868 879 876 868 876 878 869 866 857 845 836 814 796 795 791 787 788 790 795 794 795 801 801 799 801 802
820 821 822 825 824 823 823 821 823 823 823 832 848 860 865 868 874 878 878 876 873 868 861 860 868 875 875 869 863 874 877 865 867 871 865 865 866 871 878 876 880 888 892 891 879 882 889 863 855 878 882 875 877 872 862 866 880 884 879 883 885 878 872 876 883 878 871 873 871 866 856 834 819 813 798 789 789 787 786 788 787 785 787 795 800 799 800 801
820 821 824 826 823 823 824 822 823 825 829 844 857 861 867 870 873 878 880 877 872 867 864 866 870 868 870 876 872 874 880 876 875 873 868 871 868 866 877 878 877 885 891 891 884 884 888 875 860 867 880 875 863 863 860 855 866 875 874 879 882 888 892 884 889 894 878 869 874 875 854 811 793 802 794 785 789 787 785 788 786 786 789 793 799 800 799 800
820 822 825 826 824 825 823 824 837 847 849 858 865 866 869 869 869 877 882 880 876 873 871 870 869 865 864 870 871 874 878 877 878 876 871 873 867 860 871 876 875 883 886 883 882 881 881 879 870 866 869 860 852 868 877 869 869 867 862 869 870 875 883 875 877 896 896 882 875 878 860 806 779 792 792 786 787 783 786 791 788 789 791 793 797 799 799 798
821 824 827 826 824 824 824 835 860 868 859 859 864 866 868 867 868 874 878 879 876 873 875 873 871 872 868 866 870 876 876 872 877 876 868 869 867 861 870 878 878 880 878 876 882 885 883 883 878 869 862 858 861 879 888 881 881 876 868 873 875 872 869 859 860 878 890 892 892 902 883 813 770 784 790 784 787 788 793 799 796 794 794 795 796 795 796 795
823 826 827 826 825 825 827 840 861 867 863 865 869 869 870 868 868 872 874 875 873 872 872 871 870 870 868 870 874 876 872 868 869 869 866 870 870 869 876 880 879 879 877 877 881 885 884 881 874 863 856 862 874 886 889 886 883 875 872 880 879 871 867 866 871 877 875 872 880 896 877 808 769 784 792 791 799 799 798 801 799 796 795 795 794 791 791 790
828 828 828 827 825 825 826 833 847 860 866 868 867 867 869 869 868 869 869 868 870 870 866 866 870 868 870 876 874 872 872 864 860 866 871 872 871 875 882 881 878 877 875 874 876 877 874 872 871 862 850 848 853 859 866 873 877 870 868 879 877 874 882 884 888 893 877 856 856 867 848 797 775 789 794 796 801 795 791 795 796 795 793 791 791 788 787 786
827 828 830 829 827 827 832 837 842 852 863 862 861 865 866 866 869 869 867 867 871 871 864 865 872 871 874 879 874 875 877 866 860 869 875 874 873 879 884 882 881 879 877 879 880 875 873 874 870 860 854 848 837 832 836 849 865 869 869 876 875 875 879 871 874 884 872 858 859 851 821 784 774 785 787 788 794 790 786 787 789 792 791 789 789 786 784 784
824 825 828 829 831 834 842 850 846 846 855 854 854 864 864 860 867 872 869 867 870 873 869 869 873 872 873 875 869 870 875 873 872 873 872 869 867 876 884 882 882 882 879 882 883 879 880 882 874 860 854 849 835 832 845 855 857 856 858 865 870 875 876 871 874 871 859 861 858 832 810 796 784 785 785 783 786 786 784 782 782 786 786 786 786 783 781 782
823 826 831 829 831 835 841 850 848 845 851 848 845 857 861 858 864 869 869 868 870 873 870 870 872 866 864 868 864 863 871 877 877 873 870 869 868 876 885 885 884 883 881 883 884 882 879 876 874 869 858 851 845 847 860 867 858 851 852 855 860 871 877 875 866 848 841 852 837 806 809 816 796 783 784 782 780 781 782 781 779 779 781 780 779 778 778 777
826 831 841 836 830 834 837 842 847 849 852 852 852 857 857 857 859 858 861 869 872 871 866 864 866 863 860 862 856 856 867 870 868 868 868 870 873 873 876 882 885 882 882 885 884 883 877 869 875 880 867 861 864 862 863 867 862 856 855 854 857 867 872 865 852 839 839 840 816 792 802 811 796 784 780 778 780 781 781 779 778 778 778 777 775 775 774 773
832 834 844 842 837 845 850 849 851 849 849 853 856 856 854 851 851 853 861 867 866 868 866 854 852 858 861 862 857 854 858 853 849 857 863 866 871 870 865 869 880 884 883 882 885 886 876 868 881 890 874 863 867 867 867 870 865 859 857 856 857 860 862 856 844 837 839 834 816 805 810 807 794 785 781 778 780 783 782 778 777 776 775 773 772 772 770 769
827 826 835 840 842 853 857 855 852 845 848 854 849 850 855 849 845 852 861 857 849 859 867 854 846 857 864 864 859 852 849 844 839 848 858 859 864 868 860 855 869 885 884 879 885 888 876 870 884 890 871 856 861 868 869 871 869 861 852 847 848 852 855 854 847 841 842 838 826 821 825 815 793 783 785 784 781 782 781 776 773 772 771 770 769 768 767 765
822 822 826 828 837 852 853 853 854 844 842 848 842 845 852 845 843 849 850 850 846 849 858 852 847 859 868 868 863 851 849 851 846 848 855 854 853 858 856 854 864 875 880 882 884 883 880 876 881 884 864 847 859 869 862 860 862 851 834 821 823 835 841 839 836 834 832 829 827 830 830 810 785 779 783 783 780 780 778 772 769 767 766 766 765 763 762 761
822 824 825 821 832 852 854 851 854 845 836 839 840 843 845 842 849 849 840 846 856 852 854 855 851 856 862 862 858 851 851 857 854 854 859 857 856 859 857 859 862 862 871 883 884 886 887 875 872 880 862 845 863 873 859 854 842 814 799 793 791 806 822 823 821 820 820 819 817 814 802 782 773 778 779 775 774 774 770 766 763 762 761 761 760 759 758 756
Wind_Speed
4 4 4 4 4 3 3 4 4 4 4 4 4 5 5 4 5 5 4 3 3 2 3 3 2 3 5 12 14 14 13 13 16 20 15 10 14 16 16 15 12 8 8 7 3 3 7 5 5 8 9 4 3 1 1 2 2 3 2 2 1 3 2 1 2 3 2 5 6 3 2 7 6 1 2 5 9 7 7 7 5 8 10 9 10 9 10 12
5 4 4 4 4 4 4 5 5 6 6 6 5 5 6 5 5 5 4 3 2 2 2 2 1 3 7 13 13 10 7 7 15 18 14 13 17 18 16 14 11 7 7 6 3 3 7 3 6 8 5 2 2 1 1 3 4 3 2 2 2 3 2 1 2 3 2 6 6 3 3 5 3 1 1 3 3 2 6 5 4 8 8 8 10 10 11 11
5 5 5 4 4 5 5 5 6 7 7 7 7 6 6 6 5 5 4 3 3 3 3 3 1 4 7 12 11 5 2 4 9 9 12 16 18 19 16 14 9 5 6 6 5 1 5 6 10 8 4 2 1 2 3 3 3 2 2 3 2 3 2 2 3 2 2 7 8 5 3 4 2 1 1 5 5 2 4 3 2 7 5 4 6 7 11 12
6 6 5 5 5 5 5 5 6 7 7 8 7 7 6 6 6 5 4 3 3 4 3 3 2 3 6 12 10 3 1 4 4 6 14 18 20 21 16 12 8 4 6 6 4 1 3 5 9 5 4 2 3 3 4 4 1 2 3 2 2 2 2 5 4 3 5 7 8 6 5 5 1 2 2 6 6 2 1 1 1 5 5 3 3 5 9 12
6 6 5 5 5 5 5 5 6 7 8 8 8 8 8 7 6 4 3 3 3 3 3 1 2 2 6 11 10 4 1 3 4 11 17 20 22 20 14 10 6 4 6 5 1 2 3 4 5 5 4 2 4 3 3 4 2 4 3 1 2 0 3 3 4 4 5 6 7 6 5 4 0 3 3 1 3 1 1 1 1 3 3 3 3 4 7 11
6 6 6 5 5 4 5 5 6 7 7 7 7 7 7 6 6 4 3 3 2 2 2 2 2 2 5 8 8 3 2 2 8 16 19 23 21 15 11 8 5 4 4 2 1 4 3 2 4 3 3 3 3 3 2 4 3 4 2 3 4 2 3 1 3 4 3 7 6 4 4 3 3 4 3 3 3 1 1 2 3 3 3 3 4 4 5 8
7 8 7 6 5 4 5 6 7 7 6 5 4 4 4 5 5 5 4 3 3 3 2 3 3 5 9 10 7 5 6 1 14 19 21 23 15 10 8 7 5 3 2 1 2 3 3 3 3 4 5 4 2 3 3 4 6 7 3 2 4 5 5 2 3 4 5 7 4 3 5 3 3 4 2 4 3 1 2 5 6 6 5 6 5 4 5 7
8 9 8 6 5 5 5 6 6 6 5 6 4 3 3 3 6 7 6 5 4 4 4 3 5 10 11 8 6 6 4 5 17 21 21 16 7 8 8 5 4 2 2 3 3 5 3 3 4 4 4 3 3 4 2 5 7 6 4 2 3 4 5 4 5 7 7 7 4 7 8 3 1 4 3 3 1 1 3 7 7 7 6 5 4 4 5 6
8 8 8 7 6 6 5 5 5 4 5 5 5 4 1 2 7 9 8 6 5 5 4 5 10 11 6 3 5 4 4 10 18 20 15 9 6 7 6 4 4 1 4 6 3 4 2 2 4 4 5 2 4 4 3 4 2 3 5 4 5 4 3 5 6 6 6 3 2 7 6 1 1 2 3 2 1 1 4 6 5 5 5 3 3 3 5 6
7 8 8 7 6 6 6 5 5 3 3 2 3 2 1 5 10 10 8 6 5 6 6 8 11 6 5 5 6 4 6 13 16 15 9 8 7 5 7 8 5 3 5 8 8 6 1 4 6 6 9 5 4 5 5 2 4 7 11 8 7 6 2 3 5 3 3 2 3 6 3 2 1 0 1 3 3 3 4 4 2 3 2 1 1 2 4 5
7 7 8 7 7 7 6 6 6 4 3 2 1 1 6 10 12 10 7 5 5 7 8 11 11 10 16 14 7 3 8 14 14 11 7 8 9 8 11 10 6 5 4 8 9 6 3 6 9 7 5 4 4 7 7 5 10 11 12 11 6 4 4 4 3 0 1 3 2 6 4 2 2 0 2 3 4 4 4 3 1 2 1 1 1 2 3 5
6 7 7 6 6 6 6 7 7 6 5 5 5 8 12 14 12 9 8 8 11 14 12 13 11 8 17 16 5 3 8 13 14 9 7 9 12 12 13 12 11 9 5 8 9 5 6 7 10 7 1 5 5 4 4 4 8 7 6 8 2 3 5 5 3 2 2 2 2 3 2 2 2 1 1 4 4 4 4 3 2 2 2 1 2 2 4 6
6 6 6 5 6 6 7 7 8 8 8 9 10 13 15 14 13 12 14 16 17 14 8 7 4 2 8 7 3 7 9 13 14 8 8 10 11 13 14 13 15 16 14 16 13 10 9 9 15 12 3 7 4 3 6 3 3 4 2 5 3 2 4 5 4 2 3 2 2 0 1 4 3 2 3 4 4 5 4 3 3 3 2 2 2 2 4 7
5 5 4 4 5 6 7 8 9 10 11 12 13 15 15 16 16 17 16 15 12 8 6 6 6 6 8 3 1 11 10 11 15 13 13 10 7 9 12 13 16 18 19 20 17 15 15 18 22 13 3 6 6 6 7 2 3 3 1 3 3 3 1 4 4 2 3 1 2 1 1 3 4 3 5 4 4 5 4 4 4 3 3 3 3 3 4 8
4 3 3 2 4 6 7 8 9 10 12 13 13 14 14 15 15 13 11 8 7 6 7 9 7 8 7 2 1 11 13 13 18 18 17 12 8 5 7 11 14 17 20 20 18 17 18 21 18 8 4 5 6 7 5 3 3 3 2 1 2 2 2 4 3 3 2 1 3 1 2 3 4 4 6 4 4 5 4 5 5 4 5 4 4 4 4 8
2 1 1 3 5 7 8 9 11 12 13 13 14 14 12 12 10 10 9 9 8 5 6 6 6 7 6 1 3 10 12 13 17 16 13 13 12 5 2 6 8 10 15 17 19 18 20 20 10 4 5 4 4 6 4 4 3 3 2 2 2 2 0 3 1 2 1 1 2 1 2 3 3 2 5 5 5 6 5 6 6 6 6 5 5 5 4 6
2 1 1 3 6 8 10 11 13 13 13 14 15 14 12 10 7 8 10 11 11 9 9 8 7 7 5 3 4 6 8 11 16 15 12 11 12 9 4 2 3 4 7 11 15 13 14 11 2 1 5 3 3 4 4 2 2 2 2 2 1 2 2 1 2 1 3 1 1 1 2 5 3 1 4 6 6 6 6 7 6 6 6 6 6 5 6 6
2 0 2 4 7 10 12 13 14 16 18 18 18 18 18 15 11 11 8 5 3 6 9 10 8 6 3 6 4 7 11 10 13 16 14 9 8 12 11 5 4 6 3 7 11 9 6 5 2 2 4 4 4 4 3 3 3 4 2 2 1 2 3 2 3 1 4 1 2 0 3 9 5 2 4 6 7 7 8 7 6 7 7 7 6 6 7 7
2 1 2 5 9 12 14 17 20 21 21 19 18 17 17 15 15 18 19 13 5 3 3 5 5 4 1 5 7 11 9 6 11 17 18 14 7 7 12 10 6 6 5 3 6 6 3 4 5 3 2 3 2 1 4 4 4 6 4 4 4 3 3 3 2 1 3 2 3 4 4 8 6 4 5 6 6 7 7 6 6 6 6 7 6 6 8 8
3 1 2 4 9 12 16 21 20 17 13 10 7 5 5 6 7 9 16 16 6 2 3 0 1 3 1 4 9 11 4 2 9 18 24 19 8 5 10 10 7 7 6 1 3 4 3 5 4 0 3 5 4 3 4 3 2 4 4 4 3 2 2 3 1 2 1 1 3 3 3 7 7 7 6 6 5 7 9 9 8 7 6 7 7 8 9 9
4 2 1 3 8 13 17 19 15 11 7 3 2 2 2 2 3 1 2 7 3 3 6 1 1 3 1 2 10 10 2 2 10 21 28 19 6 4 7 7 7 6 4 1 3 3 5 6 2 4 5 5 3 2 4 3 3 3 4 4 2 1 2 2 1 2 1 0 2 1 3 8 9 7 6 6 6 10 12 11 10 9 8 7 8 10 10 8
6 3 1 3 7 12 18 17 12 10 4 2 3 3 3 4 7 8 6 4 2 4 5 2 3 3 1 2 10 9 4 6 10 17 26 20 8 4 3 6 7 2 4 3 1 4 6 4 2 5 3 1 2 3 4 5 4 4 3 4 2 1 2 2 1 2 2 1 2 1 3 9 9 6 6 8 9 10 9 10 10 8 8 8 9 10 8 8
7 5 1 3 5 11 17 16 13 10 4 2 3 5 7 11 13 10 8 6 1 3 3 4 4 4 4 4 12 10 7 6 4 11 22 17 6 4 4 6 6 2 6 6 4 4 3 0 3 2 3 4 5 4 3 5 4 3 3 3 1 1 1 1 1 2 2 1 1 2 3 8 7 4 6 9 10 7 6 9 9 8 10 10 9 8 8 10
8 5 1 3 4 10 14 15 13 8 3 1 5 10 14 15 13 8 6 5 2 1 1 1 2 3 3 4 11 8 5 3 0 8 18 11 3 3 4 4 5 5 5 5 7 7 2 1 1 3 3 4 4 5 4 4 3 2 2 4 2 2 3 1 1 2 3 1 1 2 4 5 4 3 7 5 5 7 6 7 9 9 11 10 8 8 10 10
9 5 1 3 5 8 12 12 10 7 4 4 9 14 15 13 9 5 4 4 2 2 2 0 2 3 1 4 11 4 3 3 1 4 11 8 2 1 3 2 4 3 1 3 8 7 2 1 2 4 3 4 4 4 4 3 2 1 1 3 3 4 4 1 2 2 3 2 1 3 3 5 3 3 8 3 2 8 6 7 11 11 10 8 8 10 11 10
9 4 1 4 7 9 10 7 7 8 5 4 11 16 14 10 5 2 4 4 2 3 4 1 1 5 4 6 10 2 3 3 2 3 9 9 3 2 4 2 2 3 3 2 4 3 1 2 3 4 4 6 5 4 1 2 4 1 1 2 2 4 5 3 2 2 1 2 1 2 0 5 5 4 6 2 4 9 5 7 13 12 10 10 10 11 10 11
9 3 2 5 9 10 6 4 8 9 3 4 14 17 12 7 2 2 3 5 3 1 3 3 2 5 4 6 7 2 2 5 3 4 9 9 6 2 5 3 2 2 1 3 3 1 1 4 6 5 5 6 4 3 1 3 5 0 1 2 3 4 4 4 3 2 1 3 2 1 2 3 6 6 3 1 3 8 8 11 14 12 13 13 13 13 13 13
10 3 3 6 10 9 2 5 11 8 3 10 17 15 11 5 1 2 5 4 2 1 1 3 3 4 4 6 8 6 1 5 2 3 9 11 7 3 5 2 2 2 1 3 2 1 1 3 4 4 5 4 2 1 2 4 3 2 2 2 3 3 4 4 4 2 0 3 3 2 1 1 7 5 1 2 3 8 11 14 15 15 15 15 15 15 15 15
10 4 3 7 11 7 3 6 9 5 8 16 18 13 10 3 0 4 6 2 2 2 1 2 3 4 5 6 7 5 2 3 3 5 10 10 9 7 5 2 5 5 2 4 4 2 0 1 1 3 4 1 1 0 1 2 2 2 3 4 4 4 4 3 3 2 2 2 3 3 1 1 6 5 1 2 2 8 11 11 12 13 13 13 14 15 15 14
9 4 3 6 9 7 4 5 6 7 13 18 16 11 6 0 4 6 3 1 1 1 1 2 3 4 6 6 5 6 5 4 3 6 7 4 7 9 5 2 4 6 4 5 4 1 1 0 1 2 2 2 3 2 1 1 2 2 3 4 4 4 4 3 2 3 3 3 4 3 2 1 4 5 3 3 4 6 8 7 8 9 10 11 12 13 14 12
9 4 4 5 7 6 4 4 6 10 15 16 13 7 1 3 5 5 0 2 1 2 2 4 3 4 7 5 3 5 5 5 6 6 6 4 7 8 4 1 3 4 5 5 4 4 3 2 0 0 0 2 4 3 2 2 2 3 3 3 2 3 4 3 4 3 2 4 5 3 2 2 4 6 3 4 6 6 6 7 8 8 9 10 10 11 11 10
11 6 3 5 6 5 5 6 9 13 15 15 9 3 4 2 2 1 2 3 2 2 1 1 2 3 4 3 3 4 3 4 5 5 3 3 4 4 3 1 1 3 4 2 3 4 1 0 1 1 1 1 3 2 3 4 4 4 3 4 3 3 4 3 4 1 2 5 3 0 1 2 7 9 8 10 14 11 9 9 9 8 8 8 8 8 7 6
13 7 4 6 6 7 9 11 12 13 14 12 5 5 7 4 0 2 2 2 1 1 0 1 2 2 2 3 4 4 2 2 4 3 1 1 4 3 2 0 2 2 1 1 1 3 3 4 2 1 1 0 3 3 1 1 2 3 2 3 3 1 3 3 4 3 4 5 2 1 1 2 6 8 10 15 16 11 8 10 10 9 8 7 5 4 4 5
14 10 10 11 10 11 12 11 11 12 10 7 4 5 6 1 2 2 2 3 1 2 1 0 2 2 2 3 2 3 2 1 2 3 2 2 3 2 3 3 1 2 3 2 0 1 1 4 1 1 1 1 2 2 4 4 3 2 4 4 3 4 2 4 4 3 5 5 4 2 1 4 4 3 6 10 10 7 5 7 7 8 9 7 6 6 6 7
16 15 15 15 13 12 10 9 10 8 5 4 6 6 4 2 3 2 2 3 1 1 1 1 3 3 3 3 2 1 1 1 2 3 3 3 2 1 1 2 2 2 3 1 1 1 2 4 4 2 2 2 2 2 4 5 3 1 2 4 1 4 4 2 3 4 2 3 4 3 3 5 5 5 7 7 9 9 7 6 6 8 9 6 7 9 9 8
14 16 16 15 12 9 8 8 7 4 3 5 6 4 2 3 2 3 3 1 1 2 0 2 3 4 2 4 3 2 1 1 2 2 2 1 2 2 1 2 1 1 2 2 2 1 1 4 4 2 2 1 2 3 1 1 1 1 1 2 3 3 6 4 1 0 3 1 4 2 5 6 4 7 8 5 8 10 8 7 8 10 8 5 8 10 8 8
8 11 12 14 12 7 5 5 3 2 4 7 5 1 3 3 2 3 2 1 1 2 4 1 1 1 1 2 3 4 2 1 1 2 1 0 1 3 1 2 2 1 2 3 2 2 2 3 4 1 0 2 1 1 2 2 2 3 1 3 2 2 4 3 1 3 3 2 4 2 7 7 3 5 6 5 7 9 8 7 7 9 8 7 11 11 9 8
2 5 8 14 13 5 3 2 1 3 6 7 4 2 2 1 1 2 3 2 1 3 4 2 1 0 1 1 2 4 3 2 2 2 0 1 1 3 2 1 1 2 2 3 1 0 3 2 6 1 1 2 2 1 2 3 3 2 2 2 2 1 1 1 0 2 1 3 4 4 8 6 4 5 6 6 9 10 10 8 7 9 9 9 11 12 10 8
1 2 4 11 11 5 2 1 1 5 7 5 2 2 2 1 1 2 3 2 2 3 2 3 1 1 2 3 2 3 2 0 0 2 1 0 1 2 3 2 2 2 1 3 3 1 2 1 4 3 2 2 2 1 3 1 3 3 1 1 2 2 3 1 1 2 2 3 4 4 6 5 7 6 6 9 10 9 9 9 8 10 10 8 9 10 9 8
1 2 2 9 8 5 4 3 5 7 5 3 4 2 1 1 1 0 1 0 1 1 1 3 3 1 3 3 2 1 1 1 2 1 1 2 1 3 3 3 3 2 1 2 2 1 2 2 3 5 3 1 1 2 5 5 2 2 1 0 1 1 1 1 0 2 3 2 3 2 5 9 7 6 8 11 9 8 9 9 9 10 10 8 7 8 7 7
3 2 3 9 6 2 4 8 7 5 4 3 2 2 0 2 2 1 2 2 1 1 1 4 4 2 3 2 2 2 1 0 2 1 2 2 1 2 3 4 5 4 3 2 1 1 1 3 3 3 2 3 5 4 4 5 5 5 4 4 3 3 3 1 3 2 2 2 4 2 5 14 6 6 8 9 8 9 9 8 9 9 9 9 7 7 8 7
4 2 4 9 3 1 6 7 3 2 4 2 1 2 1 2 3 1 1 2 0 1 1 2 2 2 3 2 2 3 2 1 2 2 2 4 4 4 2 5 6 5 4 2 2 2 2 3 1 4 5 5 5 3 1 3 4 4 3 3 3 4 5 4 4 4 1 1 2 4 2 13 6 7 8 8 7 8 6 5 7 9 9 9 8 8 8 8
3 3 3 9 2 4 9 5 2 4 2 1 0 1 1 1 2 1 1 1 1 1 1 0 2 1 2 2 2 3 3 3 3 3 3 3 4 4 3 6 6 4 4 1 2 1 2 2 0 4 5 3 3 3 2 1 3 2 2 2 4 3 3 5 5 3 2 3 2 3 3 12 7 4 6 5 3 6 6 5 7 8 8 8 9 9 8 8
2 3 2 8 2 2 4 3 2 1 1 0 2 1 1 1 2 2 2 2 2 2 2 1 2 1 1 2 2 3 4 2 2 3 2 3 3 2 3 6 5 3 2 2 2 2 1 0 1 3 6 6 6 5 5 3 0 3 3 2 3 4 6 3 2 2 2 6 7 3 7 13 6 2 2 3 3 6 9 8 7 7 8 8 8 9 9 9
2 1 2 7 8 5 3 4 5 5 3 3 3 1 0 1 1 2 3 3 2 2 2 1 1 2 2 2 2 1 3 2 2 2 0 2 4 2 2 5 3 2 3 2 2 2 2 2 2 2 2 4 5 5 4 2 1 2 2 3 5 5 8 4 2 3 3 5 7 6 11 15 8 3 6 9 7 10 13 11 7 7 9 9 8 9 9 9
2 2 2 5 8 7 3 0 4 6 5 4 3 1 2 1 1 1 2 2 2 2 1 0 1 3 2 2 1 2 3 2 0 0 1 3 4 2 1 4 2 1 2 2 3 3 2 1 3 6 7 8 8 8 2 2 2 5 5 5 6 6 7 5 4 4 6 3 4 11 15 18 20 17 16 15 13 12 13 12 10 8 8 8 9 10 9 8
1 2 1 1 3 3 4 3 4 5 4 4 3 2 4 3 1 1 1 1 1 2 1 0 2 3 3 3 2 2 2 1 1 1 3 4 3 3 1 3 2 3 3 3 1 3 4 3 5 8 11 12 11 9 3 1 6 11 10 9 8 7 8 8 8 10 5 4 9 18 13 12 21 22 18 17 16 13 12 13 13 11 9 9 9 9 10 10
0 2 2 1 1 1 3 2 3 5 4 3 2 2 4 3 2 3 2 0 0 1 2 1 3 6 7 5 4 2 1 1 2 3 2 2 2 2 2 1 1 3 3 2 2 4 5 4 4 4 9 12 10 11 8 6 9 10 11 12 10 9 11 14 18 16 8 6 17 19 12 12 18 21 20 19 16 14 14 15 14 12 11 11 11 10 10 11
2 3 0 2 2 3 1 1 5 7 5 3 2 2 5 6 6 5 2 2 1 3 3 3 6 7 7 6 4 3 4 2 2 4 3 2 2 1 0 1 1 1 2 3 0 2 4 3 2 2 7 11 9 10 9 7 8 10 12 14 11 12 15 17 20 19 13 15 21 22 21 20 19 21 22 20 16 13 13 14 13 12 12 11 11 10 10 11
2 3 2 3 3 2 1 2 4 5 3 2 1 2 4 7 7 4 2 5 3 3 3 5 7 5 6 6 5 5 8 7 3 5 5 4 3 3 3 3 2 1 1 2 1 1 2 3 1 3 5 9 5 4 5 5 7 11 15 17 14 14 15 16 17 16 12 15 20 20 19 19 20 19 17 15 14 11 11 13 13 11 11 11 10 10 10 11
3 3 5 6 3 2 2 2 3 4 1 1 3 4 3 7 8 5 3 5 6 6 6 7 5 3 3 4 7 9 9 8 6 7 8 6 4 4 4 3 5 5 3 3 1 1 2 3 1 5 3 7 2 5 7 7 8 13 18 21 17 13 12 12 12 11 10 11 12 10 9 13 15 11 7 9 11 9 11 14 13 10 9 10 10 11 11 11
5 3 3 6 3 1 0 1 2 2 2 3 4 4 3 5 6 6 3 2 2 4 6 7 7 5 2 4 10 11 7 6 7 6 5 4 2 3 3 3 6 7 6 5 1 1 4 2 0 3 2 6 3 4 6 8 10 12 12 12 10 9 9 8 7 9 10 8 5 6 9 11 9 5 7 10 11 10 12 13 11 9 10 9 9 10 11 11
Wind_Direction
353 349 339 335 327 314 309 306 302 296 287 280 274 279 282 279 274 276 288 308 332 335 339 356 48 62 113 131 129 118 96 81 65 52 48 19 358 351 342 333 328 321 320 331 336 157 145 137 149 143 138 123 16 33 71 21 40 55 86 109 172 194 192 199 184 195 148 138 153 177 146 124 139 191 147 64 51 68 70 61 55 57 52 61 85 113 140 153
340 334 327 321 316 307 300 296 295 294 288 282 270 265 269 264 260 265 277 298 309 313 315 305 96 130 146 145 144 125 95 63 51 47 31 5 357 348 335 329 325 313 317 332 334 164 154 172 158 133 112 91 1 15 66 5 42 80 115 116 220 200 162 291 274 256 158 140 135 97 88 109 124 195 130 91 56 55 81 61 54 79 64 59 79 106 128 140
330 322 317 311 307 303 299 296 294 291 288 285 278 270 264 259 254 247 252 256 265 268 265 261 169 153 166 165 161 132 100 35 37 29 3 355 349 342 332 325 320 310 316 325 329 202 170 176 157 133 70 83 355 47 74 4 28 95 107 113 229 187 130 357 331 290 134 131 123 106 93 71 41 307 84 125 110 40 101 107 94 115 107 66 63 92 115 124
327 319 314 314 313 308 304 300 294 289 288 286 284 278 265 259 250 242 241 226 236 243 245 244 186 163 180 182 177 177 281 40 31 328 343 345 340 336 329 323 319 311 315 318 321 227 168 150 144 113 75 93 334 39 60 343 6 69 74 130 243 154 92 354 357 42 83 110 116 122 114 88 18 353 78 134 115 45 207 203 172 142 137 111 77 85 108 116
333 331 330 333 327 318 310 298 292 290 289 287 282 276 266 259 251 248 238 222 232 229 235 221 181 167 181 192 193 212 322 50 337 330 341 336 334 332 324 326 320 302 311 316 330 149 150 132 107 61 76 93 348 40 42 341 63 71 58 107 304 63 108 358 8 47 74 99 99 108 112 106 66 30 38 108 125 162 204 186 170 126 121 122 117 106 110 111
350 351 352 351 341 331 318 302 299 295 290 285 277 273 266 255 244 232 212 210 202 209 231 185 168 152 164 180 186 201 94 112 329 340 335 331 333 329 326 326 315 311 311 301 102 120 136 92 83 85 78 61 25 64 39 339 43 92 64 20 1 29 108 42 10 26 73 97 90 110 119 108 102 76 30 37 91 134 75 116 114 87 98 123 122 118 110 107
9 8 9 7 360 350 331 312 306 301 294 286 272 267 259 242 223 201 189 183 177 198 191 149 132 132 136 134 124 73 89 76 337 340 329 333 336 330 338 323 321 333 315 175 156 128 121 81 116 143 87 81 111 96 76 11 40 85 101 27 30 46 66 39 49 60 72 86 89 109 96 67 101 118 73 58 73 26 72 97 99 96 107 119 115 106 102 108
18 15 13 9 7 1 339 319 306 296 287 288 287 278 248 218 194 178 172 169 167 177 168 138 134 134 130 127 106 59 57 327 335 335 330 343 355 347 348 333 347 350 69 79 165 162 144 113 153 159 90 91 118 103 74 44 45 70 113 139 67 53 61 62 75 77 76 85 90 81 72 32 104 125 96 75 69 48 91 88 91 102 103 106 103 97 108 118
21 13 11 10 14 11 354 335 317 292 273 277 291 296 264 176 165 162 164 168 164 163 155 130 137 131 109 88 92 69 348 334 337 333 340 12 25 5 5 21 25 13 66 55 81 130 149 169 188 174 130 113 82 70 354 49 64 93 109 114 97 93 79 77 75 75 84 85 66 74 64 346 163 110 87 126 170 119 100 81 80 101 98 92 91 115 133 138
19 10 10 11 17 17 10 359 349 334 299 285 301 301 158 141 147 153 157 157 156 153 145 138 142 115 59 62 74 69 334 344 344 339 360 29 24 32 39 39 45 59 71 61 58 63 46 182 168 136 117 102 68 26 352 85 121 112 112 101 96 109 89 66 83 92 96 33 25 105 121 287 282 167 146 173 178 137 108 79 73 106 114 121 104 140 153 160
15 11 9 8 19 21 14 11 13 21 23 28 14 120 129 130 134 141 148 149 153 145 136 134 131 87 73 75 77 67 346 351 357 359 19 31 34 45 42 39 45 51 75 65 53 48 62 141 137 115 103 101 88 41 36 108 115 118 117 93 71 77 65 46 63 347 49 34 16 113 129 304 339 251 189 161 158 141 127 119 118 131 158 186 171 191 184 188
12 10 6 7 21 20 19 27 36 46 56 72 97 116 118 121 124 126 127 119 119 121 122 121 122 92 69 68 74 33 357 4 14 22 31 38 44 46 46 47 49 53 83 72 48 52 94 127 106 80 55 115 116 69 89 140 116 125 111 92 66 360 42 18 357 318 50 114 231 111 105 262 246 233 176 140 139 130 134 155 181 190 213 226 233 229 213 211
9 9 4 8 26 29 31 43 57 67 77 90 106 114 114 118 118 118 118 114 115 110 109 120 126 100 63 71 62 24 14 14 25 53 52 41 52 56 58 60 62 64 76 78 65 65 96 118 98 88 83 98 116 118 127 160 81 98 50 84 117 34 27 354 339 314 74 121 239 48 261 246 229 199 162 153 140 132 152 191 207 209 223 229 233 240 231 224
8 8 4 18 41 44 45 60 76 83 89 98 108 114 116 119 117 119 117 115 115 89 75 101 106 100 80 117 66 23 19 21 32 45 37 36 63 72 70 68 71 69 71 77 74 77 94 100 93 90 57 83 127 115 95 45 29 80 56 49 85 123 276 347 8 20 80 85 328 63 241 260 243 201 173 181 151 152 187 207 214 220 225 227 226 233 238 232
6 9 12 54 76 69 71 80 89 92 97 103 109 117 121 124 124 121 117 113 108 88 94 96 91 99 78 94 37 15 17 25 26 23 17 22 37 62 79 71 73 72 72 75 77 81 88 87 78 70 54 59 104 107 77 24 25 52 108 332 360 133 260 332 20 49 91 285 2 112 229 282 247 201 173 179 160 173 205 216 222 225 224 226 227 229 234 239
1 14 45 112 108 93 93 96 100 100 100 103 106 114 120 125 129 118 109 100 87 88 109 80 53 92 92 48 350 8 16 16 9 10 14 19 26 27 57 75 72 71 76 74 77 77 71 73 66 62 93 59 62 96 83 45 14 358 93 179 264 136 190 312 4 37 32 222 7 80 231 279 267 200 171 175 173 185 211 224 224 225 228 224 224 228 228 239
360 22 104 137 130 114 110 107 109 106 101 103 104 107 108 107 120 123 119 104 79 72 84 55 36 88 80 355 359 355 350 351 357 7 14 15 24 27 25 76 12 25 77 64 58 56 48 58 72 53 70 51 48 81 83 50 302 307 45 121 216 171 161 252 219 350 27 156 247 14 235 249 268 265 197 189 184 188 213 226 223 223 228 225 224 229 227 230
352 62 124 149 149 133 122 118 117 111 107 106 102 102 98 94 97 98 102 121 75 55 65 31 26 88 29 352 349 308 310 330 357 9 11 6 15 28 36 44 349 349 40 37 34 31 17 32 66 79 38 19 34 53 115 190 205 185 174 142 167 204 188 221 215 263 25 60 224 154 250 257 263 257 218 205 195 197 217 223 226 227 225 226 226 227 229 230
354 60 138 154 157 142 130 128 123 116 112 107 104 104 98 88 83 69 54 56 53 42 64 355 16 107 296 319 310 308 309 332 7 12 11 4 352 19 31 32 28 34 43 19 17 18 20 39 40 58 10 334 354 85 166 185 183 178 180 151 156 183 214 242 226 287 26 56 234 211 244 270 270 245 217 209 202 211 230 229 232 233 225 228 225 228 230 229
356 33 148 157 164 157 142 137 131 124 120 108 102 101 96 75 57 38 33 48 66 75 99 241 35 92 11 315 324 335 337 9 24 15 9 1 343 3 16 14 32 48 50 10 336 4 68 68 43 319 246 269 265 228 184 165 166 158 127 113 139 165 235 256 242 319 42 119 251 218 251 274 264 245 215 197 199 222 232 229 233 230 222 226 224 229 229 229
357 14 149 158 168 168 158 151 146 148 139 82 33 59 157 154 71 200 7 47 34 32 70 94 105 77 39 328 345 354 18 15 17 11 7 3 352 12 2 10 44 38 19 292 295 352 65 73 35 253 238 256 271 205 162 126 99 102 115 112 93 169 244 247 217 327 16 216 259 196 276 270 259 243 209 176 197 223 222 220 229 226 224 228 225 231 230 234
355 356 138 158 168 174 172 168 169 178 179 13 22 69 148 155 128 143 136 90 6 22 59 50 55 41 316 14 2 7 62 22 3 359 1 4 14 38 11 33 66 50 341 1 7 19 52 74 287 270 227 188 39 85 119 106 91 79 97 116 113 201 257 269 261 346 18 248 265 10 308 275 265 241 206 192 208 227 220 219 230 224 226 230 225 231 232 236
352 350 73 152 170 175 180 182 188 196 205 357 46 97 119 123 128 129 104 99 65 4 27 34 59 22 355 24 8 16 63 38 350 338 352 1 19 57 72 54 66 63 0 26 98 97 76 34 293 264 164 118 61 49 81 84 72 74 105 131 195 242 182 228 264 348 353 261 268 319 297 277 272 245 222 213 215 238 230 226 236 227 228 232 227 229 226 230
351 351 58 153 165 173 182 189 195 201 202 88 108 125 129 126 131 125 90 90 84 16 356 31 119 56 31 11 1 20 83 58 154 330 348 9 53 37 78 94 72 59 20 41 90 99 96 266 49 94 117 113 87 43 51 81 50 5 130 140 177 207 186 201 327 344 329 345 21 330 310 281 267 243 245 221 205 245 235 226 238 232 233 239 239 235 227 227
352 351 73 156 160 165 174 180 191 195 169 124 134 138 136 134 138 122 90 73 17 321 336 125 130 44 35 351 355 13 125 55 121 312 344 18 48 30 74 111 80 71 290 49 75 81 57 301 110 100 71 74 93 51 37 120 114 337 221 184 193 189 168 107 10 23 13 344 353 14 331 289 295 254 248 226 188 238 224 220 239 237 232 233 237 238 232 231
355 350 129 158 160 155 158 166 177 175 152 131 151 149 145 146 147 116 91 65 15 313 347 10 58 9 348 342 346 359 103 18 294 343 8 18 2 118 82 347 57 111 206 112 79 91 39 4 71 110 96 68 74 64 11 143 113 77 226 192 155 120 120 126 116 84 48 265 255 72 229 274 301 273 245 228 231 245 234 229 242 241 233 228 230 235 232 230
4 3 161 162 163 158 160 173 168 162 145 158 159 155 156 156 139 123 83 41 8 310 349 321 330 10 354 337 346 83 91 315 306 27 21 13 344 84 77 355 39 78 181 104 57 34 353 1 31 56 73 69 68 53 321 133 108 101 233 127 123 112 130 147 115 105 221 260 311 52 133 262 288 272 253 25 263 261 257 245 245 240 233 230 230 232 229 228
8 20 160 166 169 166 152 158 161 156 143 160 160 160 167 170 181 104 82 54 338 359 359 300 326 4 348 352 19 76 123 315 28 1 353 19 15 44 75 55 123 108 24 105 114 288 7 12 22 46 62 72 91 46 215 147 99 281 225 142 152 133 139 132 100 103 6 341 312 294 116 237 276 273 349 26 283 267 258 245 242 236 231 230 230 232 230 229
11 29 145 168 176 169 114 138 153 145 147 156 157 165 175 183 358 61 74 125 299 6 196 313 346 339 344 6 17 37 21 6 61 315 336 28 34 43 84 130 130 117 38 96 143 204 133 66 134 103 81 96 195 333 209 135 77 213 152 94 80 79 85 91 93 102 47 344 266 274 15 267 271 267 93 42 266 254 255 249 244 238 233 229 229 232 232 230
15 42 119 154 174 171 137 125 127 137 150 155 160 170 181 34 55 64 49 230 316 335 244 17 7 333 6 27 3 3 26 9 336 334 350 25 13 28 86 159 105 96 29 43 85 232 305 207 173 107 87 175 152 82 55 84 97 150 100 63 62 42 37 56 61 82 57 300 258 280 320 144 281 273 196 196 227 228 241 257 257 245 236 230 228 230 230 226
25 60 119 131 152 164 156 115 120 144 151 155 162 164 118 27 66 85 56 251 308 331 5 24 360 7 29 47 2 352 20 351 338 8 16 6 359 14 46 33 57 61 14 22 27 335 357 44 254 275 21 126 110 73 28 35 64 91 72 69 72 349 5 24 351 41 81 263 257 277 283 177 238 262 236 247 260 235 223 246 256 246 236 230 225 226 227 222
34 50 126 131 137 147 139 132 136 143 148 153 155 109 71 50 35 92 278 309 335 329 38 351 319 22 27 40 20 342 341 349 5 46 38 18 29 19 25 93 139 36 1 338 351 351 12 224 292 327 313 113 114 81 14 8 38 67 63 67 64 342 359 2 317 333 212 246 241 251 300 217 238 256 262 268 269 252 224 228 240 242 240 236 233 232 230 224
44 49 102 115 122 120 117 132 139 139 146 149 127 55 76 84 207 218 279 327 359 321 96 266 323 16 9 22 13 335 342 358 2 40 74 78 66 31 352 234 162 72 11 222 347 9 342 298 333 69 288 344 119 126 130 342 53 96 134 102 103 73 24 303 276 295 274 267 262 221 247 262 271 272 249 247 258 258 235 232 238 242 248 253 260 263 251 235
63 70 91 96 103 107 112 130 139 138 144 133 80 59 73 70 221 186 273 261 259 344 35 49 338 3 40 47 346 319 44 19 341 29 18 27 55 19 327 325 7 96 110 98 94 107 65 286 276 144 238 56 96 153 160 140 95 133 163 123 136 154 157 251 237 234 266 287 294 274 214 220 243 273 235 231 255 272 252 247 256 259 256 261 274 268 254 242
71 75 81 82 85 93 104 126 135 135 136 98 63 69 100 226 231 180 234 240 238 348 345 56 54 47 4 352 330 336 99 282 343 51 24 29 91 186 290 300 330 66 109 99 263 141 124 252 255 284 282 115 130 199 138 109 93 213 159 109 151 178 154 187 199 191 217 315 297 255 234 223 221 270 270 255 268 273 261 257 266 265 255 250 261 258 247 242
67 69 69 65 64 73 92 117 129 133 120 88 63 62 167 213 212 175 195 178 133 157 150 353 49 64 340 318 337 7 46 289 2 42 11 42 167 202 236 249 253 69 116 157 212 157 70 285 283 338 338 61 168 202 122 68 167 143 135 182 218 165 119 119 240 350 74 296 278 267 267 276 301 287 278 281 279 276 275 262 252 259 259 244 253 254 244 240
59 66 58 42 39 56 85 100 120 129 93 81 80 136 211 213 177 171 179 120 137 119 96 46 336 54 312 298 313 321 328 300 340 25 333 327 186 185 209 254 202 129 153 158 205 184 136 289 295 30 13 302 268 198 12 12 116 109 186 220 189 92 84 99 272 344 40 253 270 292 270 280 319 287 300 334 298 281 282 274 265 270 265 247 251 253 248 244
37 82 55 25 18 35 70 55 72 103 81 69 84 175 204 187 162 160 168 164 126 80 90 141 213 96 189 213 279 293 320 329 347 28 47 305 244 166 161 218 157 106 136 137 117 133 120 298 301 318 165 296 353 50 328 351 52 96 193 198 104 131 253 55 190 278 317 275 280 297 285 271 208 238 280 289 270 268 277 282 284 276 260 246 252 256 254 252
308 101 41 6 6 27 47 356 31 69 72 77 128 187 174 178 241 190 174 167 109 92 113 186 185 78 166 176 223 276 325 333 16 44 121 207 284 185 172 187 165 121 117 129 139 195 101 101 286 284 248 293 8 148 241 291 32 45 82 36 44 150 186 181 158 190 222 268 283 317 316 271 214 208 231 243 248 250 263 277 276 267 259 249 252 259 260 253
30 91 353 350 12 49 53 47 46 52 67 121 177 189 148 184 227 186 120 59 127 135 181 188 163 133 190 204 222 234 21 172 168 126 197 208 257 239 207 182 159 147 93 80 121 144 68 119 244 290 314 300 239 207 201 188 143 83 116 207 323 104 147 251 231 145 149 202 244 300 304 271 237 189 212 231 239 237 242 257 263 264 267 263 255 259 263 259
65 89 323 346 7 58 55 56 45 48 90 116 155 168 165 166 150 72 30 39 110 203 159 160 158 163 179 188 223 204 147 182 175 163 233 225 215 244 210 170 161 156 132 85 137 183 124 149 205 285 304 226 237 240 194 181 166 156 175 191 190 148 119 176 282 285 116 172 200 164 288 279 256 159 207 227 226 240 244 245 258 268 272 273 269 256 251 254
69 120 320 350 4 121 64 64 26 39 106 116 138 146 131 125 122 128 112 67 85 212 97 127 147 159 169 165 192 185 156 184 198 185 229 218 204 224 205 150 145 138 127 141 238 222 141 117 166 262 249 227 254 279 149 175 158 145 187 190 155 136 132 159 234 257 191 196 192 110 259 275 259 150 197 226 223 251 263 244 256 271 273 274 275 264 250 247
87 169 339 4 34 107 67 70 328 20 74 188 74 83 32 96 114 135 188 162 189 174 67 200 192 183 195 165 150 175 185 197 192 190 215 225 227 233 185 150 139 118 113 149 248 217 116 89 16 280 286 305 325 348 31 57 105 142 241 164 148 162 147 160 183 191 200 212 181 98 246 268 277 150 196 237 267 283 283 250 245 262 272 269 267 271 265 256
122 177 360 9 356 153 84 122 166 88 177 163 63 50 348 120 139 143 195 214 199 161 141 199 205 189 181 129 125 185 201 199 211 220 203 197 238 257 151 169 167 136 159 190 173 171 212 207 79 339 326 333 343 352 349 341 56 215 242 196 175 131 99 108 154 123 264 224 185 178 258 262 275 98 202 276 300 288 278 256 235 243 261 266 263 267 267 263
98 126 322 7 31 71 118 166 149 142 166 117 100 152 105 68 176 174 178 192 192 170 162 203 185 110 108 102 82 187 208 215 235 254 48 209 251 315 127 194 197 166 214 209 133 144 201 199 143 135 273 282 291 296 291 277 234 232 227 203 206 162 140 163 146 126 239 230 171 187 251 265 277 291 280 281 279 282 284 276 255 243 252 260 261 262 263 262
117 91 297 348 28 57 70 66 107 122 156 140 117 178 158 129 274 261 153 164 175 157 127 303 127 93 89 128 148 241 239 236 26 300 256 235 254 306 161 183 184 201 181 115 82 88 99 224 208 191 207 224 243 253 233 109 267 269 255 216 204 193 173 144 106 184 211 184 197 228 245 272 285 283 282 286 284 281 286 290 287 273 260 257 256 257 259 258
114 124 138 26 16 41 41 24 69 101 151 152 130 179 177 169 272 325 164 208 181 141 110 86 151 158 176 177 179 233 232 189 50 227 225 227 249 299 266 149 185 238 169 107 55 101 96 282 241 209 228 243 256 269 293 19 264 262 262 242 209 190 171 163 204 225 171 114 258 252 237 254 275 279 282 286 287 288 290 291 292 289 281 273 266 262 261 260
70 160 164 112 105 104 73 72 108 95 91 101 93 153 162 165 195 186 190 254 40 184 181 199 229 206 189 172 160 190 225 260 259 235 226 240 261 326 344 134 219 239 170 97 344 114 128 258 243 201 249 261 269 277 276 264 259 258 260 255 232 195 181 196 224 230 188 199 256 266 262 255 267 279 282 282 286 294 293 289 289 289 286 279 274 271 266 264
87 124 61 18 106 154 137 77 112 102 88 81 79 178 171 180 207 214 181 99 325 257 197 216 252 224 191 177 149 164 203 198 258 254 214 195 208 171 299 236 245 296 132 118 350 140 156 244 222 157 277 275 266 269 267 260 268 271 262 253 236 213 205 214 233 239 227 234 254 267 275 273 271 272 276 282 288 290 287 286 285 282 279 276 273 270 267 266
147 156 154 58 69 104 30 30 91 98 67 60 140 212 180 182 204 223 185 155 181 235 188 213 244 216 181 182 167 201 215 188 211 248 184 167 229 208 207 212 159 86 88 136 189 229 204 253 166 107 298 286 284 312 297 256 255 271 272 261 240 222 221 228 239 244 240 244 253 263 272 275 271 267 270 279 284 283 280 279 278 274 272 273 272 268 265 266
113 138 143 111 75 357 355 31 84 104 112 230 201 202 199 203 201 192 199 190 173 172 183 199 203 133 113 181 203 235 233 192 206 227 182 175 219 201 205 213 145 137 173 176 151 154 179 255 11 68 322 284 3 16 319 290 272 269 272 268 251 221 213 224 229 225 215 223 245 262 264 262 265 270 268 261 264 270 272 273 276 276 269 266 267 268 267 264
100 85 117 105 85 320 354 81 72 123 205 228 194 179 202 228 206 176 189 234 164 170 189 182 160 126 108 204 224 239 234 199 220 233 189 185 220 180 183 179 143 143 165 167 150 147 151 166 110 79 283 275 323 349 316 319 309 282 262 257 243 206 201 222 241 233 208 189 209 231 237 252 270 291 284 275 272 268 267 268 273 276 274 268 262 263 267 267